Temp_Advection
nan nan nan nan nan nan nan nan nan nan nan nan nan nan nan nan nan nan nan nan nan nan nan nan nan nan nan nan nan nan nan nan nan nan nan nan nan nan nan nan nan nan nan nan nan
nan 0 0 0 0 -0 0 0 0 -0 0 0 0 0 -0 -0 0 -0 -0 0 -0 -0 0 -0 -0 0 0 -0 -0 0 -0 -0 -0 -0 0 0 0 -0 -0 -0 -0 1 0 0 nan
nan 0 0 0 0 0 0 0 0 0 0 0 0 0 0 0 -0 -0 -0 -0 0 0 -0 -0 0 0 0 0 0 -0 -0 -0 -0 -0 -0 0 0 0 -1 -0 -1 -1 -0 0 nan
nan 0 0 0 0 0 0 0 0 0 0 0 0 0 0 -0 0 0 -0 -0 -0 -0 -0 0 0 0 0 0 0 0 -1 -0 -0 0 -0 -0 -0 0 0 -0 -1 -1 -1 -0 nan
nan 0 0 0 0 0 0 0 0 0 0 -0 0 0 0 -0 -0 -0 -0 -0 -0 -0 -0 0 0 -0 -0 0 -0 0 -0 -1 -0 -0 -1 -1 0 -0 0 0 0 1 1 0 nan
nan 0 0 0 0 0 0 0 0 0 0 -0 0 -0 -0 -0 -0 -0 -0 -0 -0 0 -0 0 -0 -0 -0 -0 0 -0 -1 -0 -0 -0 0 -0 -0 0 0 1 1 1 1 1 nan
nan 0 0 0 0 0 0 0 0 0 0 0 0 0 -0 0 0 0 0 -0 0 0 0 -0 0 0 0 0 -0 -0 -0 -0 -1 -0 -0 -0 0 0 -0 0 1 1 1 1 nan
nan 0 0 0 0 0 0 0 0 0 0 0 0 0 0 0 0 -0 -0 -0 0 0 0 0 0 0 0 0 0 0 0 0 -0 -0 -0 0 0 -0 0 -0 1 0 0 0 nan
nan 0 0 0 0 0 0 0 0 0 0 0 0 -0 0 0 -0 0 0 -0 0 0 0 0 0 0 0 0 0 0 0 -0 -0 0 0 0 0 0 0 0 -0 0 0 -0 nan
nan -0 -0 -0 0 0 0 0 0 0 0 0 -0 -0 0 0 0 -0 -0 -0 -0 0 0 -0 -0 0 -0 -0 -1 0 -0 -0 0 -0 -0 -0 0 0 0 1 0 -0 -0 -0 nan
nan 0 -0 -0 -0 0 -0 -0 -0 0 -0 -0 -0 0 0 0 0 0 0 -0 -0 -0 0 0 -0 -0 -0 -0 -0 -0 -0 0 -0 0 -0 -0 -0 0 0 0 -0 -0 -0 -0 nan
nan 0 -0 -0 -0 -0 0 -0 -0 0 -0 0 0 0 0 0 0 0 -0 -0 -0 0 -0 -0 0 -0 -0 -0 -0 -0 0 0 -0 0 -0 0 0 0 -0 -0 -0 -0 0 0 nan
nan 0 0 -0 -0 0 0 0 0 0 -0 -0 0 0 0 0 0 0 0 -0 -0 -0 -0 0 -0 -0 -0 0 0 -0 0 0 0 0 -0 -0 -0 -0 0 0 1 0 0 0 nan
nan 0 0 0 -0 -0 0 -0 -0 0 -0 -1 -0 0 0 0 0 0 0 0 -0 -0 -0 -0 -0 0 -0 -0 -0 0 -0 -0 0 -0 0 -0 0 -0 0 0 0 1 0 0 nan
nan 0 -0 -0 0 0 0 -0 0 -0 0 -1 -0 -0 -0 -0 -0 0 0 -0 -0 -0 -0 0 0 -0 0 -0 -0 0 0 0 -0 -0 0 0 -0 -0 0 0 0 0 0 0 nan
nan 0 -0 -0 -0 0 0 -0 -0 -1 -0 -0 -0 -0 -0 -0 -0 -0 -0 -0 -0 -0 -0 -0 0 -0 -0 -0 0 -0 -0 -1 -0 -0 0 -0 -0 -0 -0 -0 -0 -0 0 0 nan
nan 0 0 -0 -0 -0 0 -0 -1 0 0 0 -0 -0 -0 -0 -0 -0 -0 -0 -0 -0 -0 -0 -0 -0 -0 0 -0 -0 -0 -0 0 -0 -0 -0 0 -1 -0 -0 0 -0 0 0 nan
nan -0 0 0 0 -0 -0 -1 0 -0 -0 -0 -0 -0 -0 -0 -0 -0 -0 -0 0 -0 -0 0 -0 0 -0 0 0 -0 0 -0 0 -0 0 -0 -0 -0 -0 -0 0 0 0 0 nan
nan 0 -0 0 -0 -0 -0 -0 -0 -0 -0 -0 -0 0 -0 -0 -0 -0 -0 -0 -0 -0 0 -0 0 0 -0 0 -0 0 -0 -0 -0 0 0 -0 -0 -0 -0 0 0 1 0 0 nan
nan 0 -0 -0 -0 0 -0 -0 -0 -0 0 0 -0 -0 -0 -0 -0 -0 -0 0 -0 -0 -0 -0 -0 0 0 -0 -0 0 -0 -0 0 0 -0 0 0 0 -0 -0 -0 0 0 -0 nan
nan -0 -0 -0 -0 -0 -0 -0 -0 -0 0 0 -0 -0 -0 -0 -0 -0 0 0 0 -0 0 -0 0 -0 -0 -0 0 -0 0 -0 -0 0 0 0 0 -0 -0 -0 -0 -0 -0 -0 nan
nan -0 -0 0 -0 -0 0 -0 -0 0 -0 0 -0 -0 0 0 0 0 -0 0 0 -0 -0 0 0 0 0 0 -0 -0 0 -0 0 0 -0 0 -0 -0 -0 -0 0 0 0 0 nan
nan 0 0 0 -0 0 -0 -0 0 0 0 -0 -0 -0 0 0 0 0 0 0 0 -0 -0 -0 -0 0 -0 0 -0 0 -0 -0 -0 -0 -0 -0 -0 -0 -0 -0 -0 -0 -0 0 nan
nan -0 -0 0 -0 -0 -0 -0 0 -0 0 0 0 -0 -0 -0 0 0 0 -0 0 0 0 -0 0 0 0 0 0 -0 0 -0 -0 0 0 -0 -0 -0 -0 -0 0 0 0 0 nan
nan 0 0 0 -0 -0 -0 0 0 0 0 -0 0 0 0 -0 -0 -0 -0 -0 -0 -0 -0 -0 -0 -0 -0 -0 -0 -0 0 0 0 -0 -0 -0 0 0 -0 -0 0 0 0 -0 nan
nan 0 0 -0 0 0 0 -0 0 -0 -0 -0 -0 0 0 0 0 0 0 -0 0 -0 -0 -0 -0 0 -0 0 -0 0 0 0 -0 -0 -0 -0 -0 0 0 -0 -0 -0 -0 -0 nan
nan nan nan nan nan nan nan nan nan nan nan nan nan nan nan nan nan nan nan nan nan nan nan nan nan nan nan nan nan nan nan nan nan nan nan nan nan nan nan nan nan nan nan nan nan
Wind_Speed
11 13 16 20 21 18 18 20 13 7 7 6 7 7 5 4 5 4 3 2 7 9 17 16 12 14 14 12 10 8 2 3 7 9 5 6 5 2 5 14 7 10 17 27 32
10 14 17 18 18 16 17 18 14 9 7 6 6 7 8 4 4 8 4 4 4 7 12 16 14 13 14 6 9 5 3 5 4 1 4 4 8 10 7 5 6 12 14 33 32
10 14 16 18 17 15 16 15 13 10 8 7 7 7 8 4 2 9 4 3 5 6 9 14 14 11 10 7 7 6 4 3 6 5 10 5 8 5 16 2 11 21 29 37 33
10 13 15 16 17 13 14 15 14 11 9 8 8 6 5 4 2 9 4 2 3 7 9 11 11 9 5 4 5 3 12 7 6 1 12 6 2 6 5 6 14 23 31 40 35
8 12 14 14 14 12 12 14 12 11 10 8 11 9 2 4 4 11 8 3 2 4 8 9 12 8 4 2 2 2 3 18 21 19 19 18 14 6 8 9 14 24 33 39 36
6 9 12 13 10 10 10 9 9 9 8 6 7 13 9 4 11 6 3 3 1 5 9 12 9 9 8 5 3 5 15 12 10 12 12 8 6 15 5 13 20 27 34 35 34
3 5 8 9 9 10 8 9 6 5 4 5 6 6 8 10 11 3 2 1 1 8 8 9 7 5 7 3 3 7 4 5 12 12 5 16 2 5 16 19 25 26 28 28 29
4 0 3 4 7 9 11 8 11 8 5 7 9 4 3 16 9 6 4 2 2 6 8 9 14 7 3 3 5 2 3 3 5 7 1 5 7 3 21 24 24 24 23 24 26
6 6 3 4 7 10 12 12 11 10 2 5 3 1 2 11 13 4 4 5 6 13 10 10 13 4 4 3 4 5 4 5 3 5 2 3 4 2 23 23 25 23 21 21 22
6 8 9 7 5 6 8 6 9 12 4 3 2 3 5 4 3 7 10 13 12 10 3 5 5 2 3 3 11 6 4 3 5 4 3 5 4 4 17 21 22 25 23 22 21
7 6 9 12 13 11 9 9 5 3 9 6 2 1 7 9 7 1 6 5 9 6 1 2 3 7 13 3 2 5 5 4 2 1 4 4 4 7 14 15 17 17 17 17 21
12 6 8 11 13 14 11 8 4 3 4 1 4 6 8 11 4 6 3 4 4 0 8 1 8 3 3 5 8 9 6 3 1 2 5 5 3 2 2 6 18 20 23 27 25
14 9 8 7 6 9 9 7 7 5 2 2 4 4 4 7 7 8 3 5 2 4 5 5 2 7 7 2 7 2 6 4 5 3 5 6 5 2 2 2 17 22 27 28 29
13 11 7 4 3 2 2 3 3 2 4 7 4 3 3 2 6 10 8 5 5 3 3 3 6 1 5 5 3 3 1 4 9 5 5 2 4 5 5 6 5 15 29 27 28
13 10 6 5 2 2 2 1 1 1 5 6 6 6 8 1 3 7 9 7 3 4 5 3 7 7 9 3 2 3 4 6 4 6 4 4 5 6 3 7 8 15 14 20 24
9 10 7 3 2 2 2 2 1 6 3 6 5 6 6 4 3 1 2 3 1 3 5 1 4 4 3 4 6 6 2 8 6 4 2 1 5 4 5 7 4 6 16 16 20
4 12 8 3 2 1 0 1 5 5 2 6 3 4 3 3 4 3 3 6 3 4 5 2 3 5 5 4 2 1 4 3 3 3 5 3 3 8 3 3 5 14 18 17 14
5 5 9 5 2 1 1 5 6 3 4 3 3 5 3 4 3 6 3 4 4 3 3 3 4 2 5 0 2 3 4 5 5 4 3 2 5 5 3 6 1 11 17 13 10
6 2 9 5 2 1 1 5 4 3 3 6 5 4 6 5 3 4 4 4 2 4 2 2 2 2 2 1 1 1 4 3 7 4 4 3 4 4 5 5 12 14 12 9 7
7 3 7 2 2 1 4 3 2 2 3 2 3 2 5 6 5 3 4 3 6 4 5 1 2 1 3 1 2 3 4 4 4 3 2 4 1 3 5 2 2 5 7 6 5
6 2 6 2 2 1 3 4 2 1 0 1 3 4 3 2 2 4 4 2 3 6 3 4 2 3 0 3 1 3 2 6 3 4 4 4 4 4 3 3 5 6 7 7 7
4 1 3 1 1 3 2 3 2 2 1 1 1 1 2 3 3 1 0 2 6 3 2 1 1 1 1 3 1 1 2 4 4 4 1 4 3 3 4 5 5 4 5 5 6
8 3 2 1 1 0 2 2 2 3 2 1 1 1 1 2 2 1 2 1 5 3 2 4 3 2 6 4 4 3 2 1 1 2 3 4 4 3 5 11 9 9 4 1 5
4 2 2 2 1 5 5 3 2 2 3 3 2 0 2 1 1 2 3 3 5 4 3 1 2 3 5 2 1 2 3 3 3 3 2 2 4 5 4 6 13 16 13 9 3
3 3 2 2 1 2 2 7 4 3 3 4 2 3 2 1 1 1 3 3 3 6 2 3 2 2 3 5 2 2 3 2 3 1 3 3 5 3 4 5 6 8 9 10 10
4 3 3 2 2 4 1 6 8 4 6 3 3 5 4 4 4 4 1 1 1 4 4 4 2 2 3 2 3 3 5 6 3 2 4 2 1 3 5 6 8 8 9 12 11
7 6 3 3 3 3 4 5 6 8 4 3 4 2 2 4 5 2 3 2 2 1 1 1 3 2 4 1 4 2 3 3 3 3 4 3 4 5 3 8 7 8 9 9 8
Wind_Direction
34 26 16 11 4 1 3 2 355 346 359 11 7 7 12 47 78 87 123 194 254 207 185 187 201 213 199 191 177 205 62 197 201 166 177 172 137 110 167 146 144 150 154 173 166
23 16 12 11 7 14 14 18 31 44 40 27 22 46 54 65 81 37 305 254 251 244 179 188 194 196 206 169 199 174 147 211 227 259 175 184 142 148 123 134 81 124 151 164 170
11 12 11 13 13 17 21 18 23 32 31 37 53 34 28 39 113 352 360 303 255 199 196 201 190 191 187 168 192 190 194 245 268 317 303 190 165 146 139 116 170 155 159 166 175
5 10 8 12 18 23 28 33 36 31 40 59 25 6 360 27 269 346 346 326 275 200 189 180 174 156 192 178 195 182 223 210 268 72 336 264 209 134 134 149 165 170 168 171 179
3 9 10 16 21 27 34 34 36 45 55 51 29 5 326 38 0 331 310 312 259 207 196 184 166 150 156 135 20 178 210 239 257 277 295 291 219 168 152 159 172 170 170 178 182
4 13 15 23 24 19 17 26 41 53 52 50 12 33 49 54 340 337 279 232 225 188 182 183 191 183 158 128 98 330 239 237 275 287 270 233 233 172 161 158 160 171 177 184 189
345 23 26 34 31 40 31 31 28 26 3 358 358 347 30 3 351 6 56 5 183 194 175 185 181 163 133 81 258 252 231 290 274 280 260 194 168 188 154 168 161 173 179 185 195
270 328 24 34 5 353 351 356 28 351 313 322 337 339 354 347 3 9 318 319 235 174 187 188 175 157 130 155 135 147 121 123 267 220 200 146 204 208 164 166 168 171 183 190 195
273 252 267 309 338 346 358 357 332 358 343 25 337 214 29 26 42 17 346 195 147 140 136 138 171 156 106 108 96 175 177 184 241 183 201 113 159 182 171 179 172 184 183 191 184
298 271 264 271 288 328 13 31 42 46 8 294 72 277 355 355 37 97 93 92 116 99 113 141 197 121 135 158 178 159 193 171 194 198 65 89 114 145 182 185 179 182 183 187 187
335 296 278 266 269 283 305 347 351 321 36 67 89 29 343 333 298 278 38 79 180 206 51 317 149 150 155 196 133 167 151 134 262 144 93 117 135 176 186 184 181 185 183 195 200
357 323 299 286 267 265 286 320 333 304 314 315 327 334 348 338 319 33 80 163 225 351 138 74 70 309 196 226 252 231 152 144 349 142 91 126 90 13 160 218 193 183 190 201 196
0 347 337 329 294 253 261 285 305 316 293 323 272 281 346 357 340 352 356 137 150 64 65 108 192 232 215 138 162 56 146 179 148 115 42 97 7 220 206 158 213 205 201 200 198
355 356 360 350 358 3 280 291 279 281 63 307 346 6 347 333 327 352 10 15 21 76 43 91 307 88 89 77 342 78 87 146 140 98 150 93 227 243 228 187 195 194 213 208 204
354 2 352 8 352 333 309 352 153 134 46 290 311 339 347 178 320 357 6 29 10 23 54 299 5 20 52 337 293 95 353 139 94 88 97 341 64 256 162 223 207 203 186 202 198
1 5 357 353 352 347 338 103 127 44 283 329 316 355 12 11 358 36 346 27 25 90 45 315 11 42 312 298 56 6 58 46 47 84 49 278 115 270 199 203 216 194 194 178 175
315 9 9 356 332 346 340 338 29 98 336 306 326 349 343 302 10 11 52 20 47 46 17 40 41 350 351 75 10 128 58 49 22 20 201 317 58 246 281 319 241 195 185 177 179
327 344 3 13 357 79 102 51 65 243 265 323 333 318 359 6 7 15 32 25 11 69 58 90 336 94 325 203 211 150 159 149 168 160 229 1 226 262 336 354 106 182 160 161 170
339 316 7 10 67 42 135 54 208 207 322 335 318 39 340 356 42 66 33 341 311 10 104 117 337 321 167 243 193 234 58 196 102 35 63 223 281 340 346 25 76 113 143 157 177
338 304 356 29 30 341 78 177 215 271 333 347 340 54 17 336 27 44 16 349 330 13 359 273 51 25 304 355 341 108 172 58 21 130 213 282 256 229 334 329 104 128 153 166 182
330 301 359 140 334 13 124 211 185 222 36 360 324 325 17 23 8 14 335 348 338 316 15 3 111 280 61 21 212 10 51 57 101 147 176 162 278 234 269 282 185 193 193 196 198
323 351 350 281 357 64 140 173 171 163 169 256 231 278 314 355 20 84 192 235 343 308 349 169 152 93 41 322 304 2 95 135 137 213 164 136 279 297 310 30 122 168 181 186 194
323 272 243 279 153 23 272 271 175 161 176 186 277 176 289 312 4 25 350 290 357 30 45 340 5 30 349 3 29 17 356 14 8 45 192 121 238 306 26 36 31 50 54 185 199
312 348 210 223 123 144 161 210 237 213 186 190 220 247 319 288 284 336 345 356 354 6 338 354 63 130 187 221 174 220 208 159 125 90 157 204 135 336 42 68 60 74 81 77 114
264 246 196 269 271 190 175 164 158 234 242 202 206 200 171 282 351 13 351 330 339 354 35 98 114 116 259 255 251 260 267 205 193 215 155 158 132 256 143 99 76 70 68 69 67
260 225 207 240 211 167 193 231 178 183 157 233 220 194 162 185 190 201 191 319 280 334 24 4 317 20 288 331 359 293 280 251 238 276 299 275 329 140 86 85 61 57 67 72 59
242 241 222 217 160 125 223 198 222 155 193 183 184 147 229 209 184 205 240 233 225 239 262 132 133 100 261 258 346 335 227 198 193 179 167 168 183 157 112 109 105 106 105 84 61
Height
1533 1530 1528 1524 1522 1519 1515 1510 1506 1504 1504 1503 1502 1500 1498 1497 1496 1496 1496 1497 1496 1496 1498 1501 1503 1505 1506 1509 1512 1514 1518 1520 1513 1510 1507 1505 1508 1511 1513 1514 1515 1517 1522 1525 1532
1533 1531 1528 1525 1522 1518 1515 1511 1507 1505 1505 1504 1503 1501 1500 1498 1498 1497 1496 1495 1495 1494 1496 1499 1500 1503 1507 1509 1512 1512 1517 1514 1507 1506 1505 1506 1507 1509 1514 1516 1516 1517 1522 1527 1532
1533 1531 1528 1525 1522 1519 1516 1512 1509 1507 1506 1505 1504 1503 1502 1500 1500 1498 1496 1494 1494 1495 1494 1498 1500 1502 1506 1507 1509 1510 1513 1509 1505 1507 1507 1508 1508 1508 1510 1515 1513 1515 1520 1526 1531
1533 1531 1529 1526 1522 1520 1517 1514 1511 1508 1507 1506 1506 1504 1501 1500 1502 1498 1496 1494 1492 1494 1496 1496 1498 1502 1505 1506 1507 1510 1509 1508 1504 1508 1507 1507 1510 1507 1510 1510 1513 1515 1518 1524 1529
1533 1531 1529 1526 1524 1521 1518 1516 1513 1510 1508 1507 1506 1504 1502 1501 1500 1498 1497 1495 1494 1494 1495 1496 1498 1501 1504 1504 1505 1509 1507 1508 1505 1509 1509 1505 1509 1508 1511 1511 1512 1517 1520 1524 1529
1532 1531 1529 1526 1524 1521 1519 1516 1514 1511 1509 1507 1506 1505 1502 1502 1499 1497 1495 1495 1495 1495 1496 1497 1499 1500 1502 1503 1507 1508 1508 1508 1506 1507 1508 1506 1505 1507 1511 1510 1512 1516 1521 1525 1529
1531 1530 1528 1526 1524 1522 1519 1517 1515 1512 1510 1509 1506 1504 1503 1503 1498 1496 1495 1495 1495 1495 1496 1498 1500 1501 1502 1503 1506 1508 1510 1509 1506 1505 1504 1503 1510 1504 1505 1511 1512 1517 1521 1525 1529
1530 1530 1528 1527 1524 1522 1519 1517 1516 1513 1510 1508 1506 1504 1503 1501 1498 1496 1495 1494 1495 1495 1497 1498 1500 1503 1504 1504 1506 1510 1510 1517 1505 1502 1502 1503 1514 1506 1507 1510 1514 1515 1520 1523 1525
1528 1528 1527 1526 1524 1522 1519 1517 1515 1513 1511 1508 1506 1503 1502 1500 1496 1496 1492 1494 1495 1497 1498 1499 1502 1503 1505 1503 1511 1509 1518 1514 1506 1500 1501 1503 1509 1506 1508 1511 1513 1516 1518 1522 1524
1526 1526 1525 1525 1523 1522 1519 1518 1516 1513 1510 1509 1507 1508 1503 1501 1497 1496 1495 1496 1497 1497 1498 1499 1501 1501 1502 1502 1504 1512 1513 1509 1509 1501 1499 1504 1506 1507 1509 1511 1513 1515 1518 1523 1524
1524 1523 1523 1522 1521 1520 1519 1518 1518 1516 1512 1511 1510 1506 1503 1501 1498 1497 1498 1499 1498 1499 1497 1497 1499 1501 1499 1498 1497 1503 1505 1506 1503 1499 1502 1506 1509 1510 1510 1512 1513 1512 1512 1519 1524
1523 1521 1520 1519 1518 1518 1518 1518 1518 1518 1514 1512 1509 1507 1502 1500 1499 1498 1498 1498 1495 1496 1500 1500 1503 1496 1501 1503 1502 1501 1503 1504 1501 1499 1501 1509 1512 1513 1511 1510 1511 1512 1516 1522 1524
1523 1520 1518 1517 1516 1516 1516 1517 1516 1515 1515 1511 1508 1506 1505 1501 1499 1497 1496 1496 1495 1495 1497 1501 1500 1498 1499 1499 1499 1502 1503 1507 1503 1502 1507 1511 1521 1516 1513 1512 1513 1514 1517 1519 1520
1522 1519 1517 1516 1518 1515 1516 1515 1515 1515 1527 1516 1508 1507 1506 1503 1500 1496 1496 1496 1493 1497 1497 1501 1499 1495 1495 1498 1498 1500 1500 1501 1506 1508 1529 1516 1546 1525 1517 1516 1514 1514 1515 1517 1520
1522 1519 1517 1515 1515 1516 1517 1515 1515 1516 1556 1514 1508 1507 1505 1505 1505 1500 1498 1496 1497 1496 1501 1503 1502 1499 1498 1501 1499 1503 1500 1501 1504 1515 1520 1520 1539 1521 1517 1518 1516 1515 1514 1515 1518
1522 1519 1517 1516 1515 1516 1516 1516 1517 1534 1549 1520 1510 1509 1506 1504 1504 1502 1501 1500 1500 1500 1502 1502 1500 1501 1502 1496 1494 1501 1503 1506 1513 1520 1544 1522 1534 1525 1520 1509 1508 1511 1512 1514 1516
1521 1520 1517 1516 1516 1515 1516 1518 1532 1544 1523 1519 1515 1510 1511 1509 1506 1504 1507 1508 1510 1514 1509 1506 1508 1507 1504 1505 1505 1508 1511 1538 1543 1552 1544 1531 1539 1518 1508 1506 1506 1505 1509 1514 1517
1521 1520 1517 1516 1515 1516 1516 1520 1540 1528 1523 1517 1515 1512 1510 1509 1507 1509 1509 1513 1509 1508 1515 1522 1525 1512 1509 1509 1509 1509 1510 1535 1534 1543 1546 1531 1534 1521 1510 1509 1504 1504 1511 1515 1518
1521 1519 1518 1516 1515 1516 1517 1541 1535 1529 1524 1523 1516 1517 1516 1511 1512 1512 1516 1516 1512 1510 1513 1513 1512 1508 1508 1508 1510 1502 1520 1514 1531 1542 1555 1544 1519 1514 1512 1510 1507 1508 1512 1515 1518
1521 1519 1518 1517 1516 1516 1519 1529 1527 1524 1523 1522 1522 1518 1521 1519 1516 1513 1519 1517 1516 1513 1512 1509 1514 1508 1507 1507 1506 1505 1509 1518 1534 1533 1530 1538 1519 1540 1522 1512 1511 1511 1512 1515 1517
1520 1518 1518 1516 1516 1517 1529 1529 1522 1522 1523 1524 1523 1522 1521 1522 1520 1521 1522 1519 1516 1513 1512 1513 1515 1512 1510 1512 1511 1511 1511 1514 1522 1530 1530 1532 1535 1519 1515 1511 1510 1510 1511 1512 1514
1519 1519 1518 1517 1519 1521 1525 1520 1521 1521 1521 1522 1522 1521 1521 1520 1520 1519 1519 1519 1517 1516 1514 1515 1516 1526 1512 1512 1511 1509 1508 1514 1530 1519 1528 1528 1539 1514 1513 1509 1508 1509 1511 1513 1515
1518 1518 1517 1517 1521 1524 1521 1521 1519 1521 1520 1520 1521 1520 1518 1518 1520 1517 1517 1517 1516 1515 1516 1515 1518 1533 1516 1512 1510 1513 1512 1515 1518 1520 1515 1523 1538 1513 1512 1511 1512 1512 1514 1515 1517
1519 1519 1517 1516 1515 1517 1519 1520 1520 1519 1518 1519 1519 1519 1519 1518 1517 1518 1517 1517 1517 1516 1515 1515 1521 1520 1525 1514 1516 1515 1514 1514 1517 1532 1521 1521 1522 1518 1517 1517 1515 1515 1515 1515 1517
1519 1515 1515 1518 1515 1516 1516 1515 1518 1519 1519 1518 1518 1517 1519 1520 1519 1519 1518 1517 1516 1515 1514 1516 1520 1528 1520 1519 1516 1514 1513 1514 1518 1512 1515 1517 1518 1515 1516 1516 1516 1516 1517 1517 1518
1517 1515 1514 1513 1513 1514 1516 1517 1512 1513 1516 1517 1517 1515 1515 1517 1518 1520 1520 1521 1519 1517 1516 1518 1521 1520 1516 1514 1515 1515 1515 1515 1515 1512 1514 1515 1517 1516 1517 1517 1517 1517 1518 1518 1519
1513 1513 1512 1511 1511 1514 1512 1510 1511 1509 1512 1512 1514 1515 1516 1515 1515 1517 1518 1518 1518 1518 1519 1519 1523 1530 1518 1516 1520 1519 1507 1512 1512 1511 1510 1515 1514 1514 1517 1517 1518 1519 1519 1519 1520